Printer-friendly version

IAU Minor Planet Center

Minor Planet Center

MPEC 2007-V15 : 2007 VZ2

The following Minor Planet Electronic Circular may be linked-to from your own Web pages, but must not otherwise be redistributed electronically.


Read MPEC 2007-V14 Read MPEC 2007-V16


M.P.E.C. 2007-V15                                Issued 2007 Nov. 4, 18:22 UT

     The Minor Planet Electronic Circulars contain information on unusual
         minor planets and routine data on comets.  They are published
   on behalf of Commission 20 of the International Astronomical Union by the
          Minor Planet Center, Smithsonian Astrophysical Observatory,
                          Cambridge, MA 02138, U.S.A.

             Prepared using the Tamkin Foundation Computer Network

                              MPC@CFA.HARVARD.EDU
          URL http://www.cfa.harvard.edu/iau/mpc.html  ISSN 1523-6714

                                   2007 VZ2

Observations:
     K07V02Z* C2007 11 02.20565 00 53 03.73 -09 22 25.5          18.1 V EV015703
     K07V02Z  C2007 11 02.21216 00 53 08.80 -09 27 36.0          18.3 V EV015703
     K07V02Z  C2007 11 02.21868 00 53 14.20 -09 32 53.8          18.6 V EV015703
     K07V02Z  C2007 11 02.22518 00 53 19.39 -09 38 03.9          18.4 V EV015703
     K07V02Z  C2007 11 02.23207 00 53 25.00 -09 43 38.7          18.4 V EV015703
     K07V02Z  C2007 11 02.23298 00 53 25.69 -09 44 21.9          18.8 V EV015703
     K07V02Z  C2007 11 02.23391 00 53 26.49 -09 45 06.3          18.7 V EV015703
     K07V02Z  C2007 11 02.23481 00 53 27.18 -09 45 49.8          18.7 V EV015703
     K07V02Z  C2007 11 02.29006 00 54 11.54 -10 29 26.1          19.0 V EV015703
     K07V02Z  C2007 11 02.29099 00 54 12.29 -10 30 09.5          18.6 V EV015703
     K07V02Z  C2007 11 02.29190 00 54 12.97 -10 30 52.5          18.3 V EV015703
     K07V02Z  C2007 11 02.29283 00 54 13.72 -10 31 36.7          18.6 V EV015703
     K07V02Z  C2007 11 02.34901 00 54 58.83 -11 14 45.9          18.9 V EV015703
     K07V02Z  C2007 11 02.35021 00 54 59.74 -11 15 38.7          19.1 V EV015703
     K07V02Z  C2007 11 02.35147 00 55 00.63 -11 16 29.4          19.0 V EV015703
     K07V02Z  C2007 11 02.35267 00 55 01.85 -11 17 29.0          17.8 V EV015703
     K07V02Z  C2007 11 03.30810 01 07 02.24 -21 06 47.1          19.3 V EV015G96
     K07V02Z  C2007 11 03.30840 01 07 02.38 -21 06 56.2          19.1 V EV015G96
     K07V02Z  C2007 11 03.30871 01 07 02.60 -21 07 05.0          19.1 V EV015G96
     K07V02Z  C2007 11 03.30902 01 07 02.74 -21 07 14.4          19.2 V EV015G96
     K07V02Z  C2007 11 03.30975 01 07 03.14 -21 07 35.8          19.2 V EV015G96
     K07V02Z  C2007 11 03.31007 01 07 03.32 -21 07 45.4          19.1 V EV015G96
     K07V02Z  C2007 11 03.31039 01 07 03.50 -21 07 54.8          19.3 V EV015G96
     K07V02Z  C2007 11 03.31081 01 07 03.75 -21 08 07.4          19.2 V EV015G96
     K07V02Z  C2007 11 04.16317 01 15 17.08 -27 02 59.5          20.1 V EV015G96
     K07V02Z  C2007 11 04.16351 01 15 17.14 -27 03 05.9          19.8 V EV015G96
     K07V02Z  C2007 11 04.16383 01 15 17.37 -27 03 13.6          19.8 V EV015G96
     K07V02Z  C2007 11 04.16417 01 15 17.47 -27 03 20.6          19.3 V EV015G96

Observer details:
703 Catalina Sky Survey.  Observer E. C. Beshore.  Measurers E. C. Beshore,
    A. Boattini, G. J. Garradd, A. R. Gibbs, A. D. Grauer, R. E. Hill,
    R. A. Kowalski, S. M. Larson, R. H. McNaught.  0.68-m Schmidt + CCD.
G96 Mt. Lemmon Survey.  Observer A. Boattini.  Measurers E. C. Beshore,
    A. Boattini, G. J. Garradd, A. R. Gibbs, A. D. Grauer, R. E. Hill,
    R. A. Kowalski, S. M. Larson, R. H. McNaught.  1.5-m reflector + CCD.

Orbital elements:
2007 VZ2                                                 Earth MOID = 0.0203 AU
Epoch 2007 Oct. 27.0 TT = JDT 2454400.5                 MPC
M  82.70995              (2000.0)            P               Q
n   1.00604439     Peri.   70.72662     +0.23525848     +0.91942568
a   0.9864111      Node   217.79180     -0.96563765     +0.25795072
e   0.1875141      Incl.   30.94793     +0.11044172     +0.29684650
P   0.98           H   24.7           G   0.15           U   7
Residuals in seconds of arc
071102 703 (3.0+  4.5-)   071102 703  1.4-  0.3+    071103 G96  0.2-  0.2+
071102 703  0.7-  1.4+    071102 703  1.3-  0.5-    071103 G96  0.2-  0.1+
071102 703  0.6+  0.5-    071102 703 (1.1+  4.5-)   071103 G96  0.2-  0.1+
071102 703 (0.7-  3.3+)   071102 703  0.3+  2.9-    071103 G96  0.0   0.1-
071102 703  0.3-  0.2+    071102 703 (1.5-  3.5+)   071104 G96  0.3+  0.4-
071102 703  1.0-  0.7+    071102 703  2.3+  1.7-    071104 G96  0.8-  0.4+
071102 703  0.3-  1.0+    071103 G96  0.1+  0.2+    071104 G96  0.4+  0.6-
071102 703  0.8-  0.7+    071103 G96  0.3-  0.0     071104 G96  0.2-  0.4-
071102 703  0.8-  0.8+    071103 G96  0.4+  0.3+
071102 703  0.7-  0.9+    071103 G96  0.1-  0.1+

Ephemeris:
2007 VZ2                 a,e,i = 0.99, 0.19, 31                  q = 0.8014
Date    TT    R. A. (2000) Decl.     Delta      r     Elong.  Phase     V
2007 10 27    17 41.21   +74 05.5    0.0461   0.997    93.0    84.3    21.0
2007 10 29    21 30.56   +69 40.9    0.0304   1.004   109.2    69.1    19.6
2007 10 31    23 57.33   +35 26.3    0.0219   1.010   141.6    37.6    17.9
2007 11 02    00 49.71   -06 23.8    0.0282   1.016   148.1    31.0    18.3
2007 11 04    01 13.79   -26 01.2    0.0432   1.023   134.4    43.9    19.6
2007 11 06    01 27.40   -34 47.6    0.0609   1.029   126.4    50.9    20.6
2007 11 08    01 36.15   -39 26.4    0.0794   1.035   121.6    54.7    21.3
2007 11 10    01 42.30   -42 13.2    0.0983   1.041   118.3    56.9    21.8
2007 11 12    01 46.92   -44 01.2    0.117    1.046   115.8    58.4    22.2
2007 11 14    01 50.57   -45 14.5    0.136    1.052   113.9    59.3    22.6
2007 11 16    01 53.59   -46 05.6    0.156    1.058   112.3    59.9    22.9

Gareth V. Williams           (C) Copyright 2007 MPC           M.P.E.C. 2007-V15

Read MPEC 2007-V14 Read MPEC 2007-V16


Our Web policy. Index to the CBAT/MPC/ICQ pages.


Valid HTML 4.01!